Weather History for Lancaster, OH

Change the Weather History Date:

Thursday, April 17, 2014

  Actual Average Record
Temperature  
Mean Temperature 50 °F -  
Max Temperature 66 °F 63 °F 82 °F (1976)
Min Temperature 35 °F 39 °F 25 °F (1980)
Degree Days  
Heating Degree Days 14    
Moisture  
Dew Point 28 °F    
Average Humidity 46    
Maximum Humidity 82    
Minimum Humidity 25    
Precipitation  
Precipitation 0.00 in - - ()
Sea Level Pressure  
Sea Level Pressure 30.34 in    
Wind  
Wind Speed 7 mph (South)    
Max Wind Speed 14 mph    
Max Gust Speed 22 mph    
Visibility 10 miles    
Events      
Averages and records for this station are not official NWS values.
T = Trace of Precipitation, MM = Missing Value Source: NWS Daily Summary

Daily Weather History Graph

Daily Weather History Graph

Search for Another Location

Airport:

Trip Planner

Search our weather history database for the weather conditions in past years. The results will help you decide how hot, cold, wet, or windy it might be!

Date:

Astronomy

Apr. 17, 2014 Rise Set
Actual Time 6:50 AM EDT 8:10 PM EDT
Civil Twilight 6:22 AM EDT 8:38 PM EDT
Nautical Twilight 5:48 AM EDT 9:12 PM EDT
Astronomical Twilight 5:13 AM EDT 9:48 PM EDT
Moon 10:55 PM EDT (4/17) 8:21 AM EDT (4/17)
Length of Visible Light 14h 16m
Length of Day
13h 20m
Waning Gibbous, 94% of the Moon is Illuminated
Apr 17
Waning Gibbous
Apr 22
Last Quarter
Apr 29
New
May 6
First Quarter
May 14
Full

Hourly Weather History & Observations

Time (EDT) Temp. Windchill Dew Point Humidity Pressure Visibility Wind Dir Wind Speed Gust Speed Precip Events Conditions
12:53 AM 36.0 °F 30.3 °F 21.0 °F 55% 30.35 in 10.0 mi East 6.9 mph - N/A   Clear
1:53 AM 35.1 °F 30.1 °F 21.0 °F 57% 30.35 in 10.0 mi ESE 5.8 mph - N/A   Clear
2:53 AM 36.0 °F 29.6 °F 19.9 °F 52% 30.33 in 10.0 mi ESE 8.1 mph - N/A   Clear
3:53 AM 36.0 °F 30.3 °F 19.9 °F 52% 30.32 in 10.0 mi SE 6.9 mph - N/A   Clear
4:53 AM 37.0 °F 32.4 °F 19.9 °F 50% 30.33 in 10.0 mi SE 5.8 mph - N/A   Clear
5:53 AM 36.0 °F 31.1 °F 21.0 °F 55% 30.35 in 10.0 mi SSE 5.8 mph - N/A   Clear
6:53 AM 37.0 °F 32.4 °F 21.9 °F 54% 30.36 in 10.0 mi SSE 5.8 mph - N/A   Clear
7:53 AM 41.0 °F 35.2 °F 23.0 °F 49% 30.38 in 10.0 mi SSE 9.2 mph - N/A   Clear
8:53 AM 46.9 °F - 25.0 °F 42% 30.40 in 10.0 mi SSE 13.8 mph - N/A   Clear
9:53 AM 52.0 °F - 26.1 °F 37% 30.40 in 10.0 mi SSW 12.7 mph - N/A   Clear
10:53 AM 57.0 °F - 28.9 °F 34% 30.40 in 10.0 mi South 11.5 mph 21.9 mph N/A   Clear
1:53 PM 63.0 °F - 33.1 °F 33% 30.38 in 10.0 mi South 10.4 mph 20.7 mph N/A   Clear
2:53 PM 64.9 °F - 32.0 °F 29% 30.35 in 10.0 mi SW 11.5 mph 21.9 mph N/A   Clear
3:53 PM 64.9 °F - 30.9 °F 28% 30.32 in 10.0 mi WSW 11.5 mph - N/A   Clear
4:53 PM 66.0 °F - 30.9 °F 27% 30.31 in 10.0 mi SSW 4.6 mph - N/A   Clear
5:53 PM 66.9 °F - 30.0 °F 25% 30.30 in 10.0 mi SSW 5.8 mph - N/A   Clear
6:53 PM 64.9 °F - 28.9 °F 26% 30.28 in 10.0 mi SSW 9.2 mph - N/A   Clear
7:53 PM 63.0 °F - 28.0 °F 27% 30.28 in 10.0 mi SSW 4.6 mph - N/A   Clear
8:53 PM 51.1 °F - 37.9 °F 61% 30.30 in 10.0 mi Calm Calm - N/A   Clear
9:53 PM 46.0 °F - 37.9 °F 73% 30.33 in 10.0 mi Calm Calm - N/A   Clear
10:53 PM 46.0 °F - 36.0 °F 68% 30.31 in 10.0 mi Calm Calm - N/A   Clear
11:53 PM 42.1 °F - 37.0 °F 82% 30.30 in 10.0 mi Calm Calm - N/A   Clear